sat.trackr.live / text

‹ back to catalog

IRIDE-MS1-EAGLET 2-16

NORAD 68452 · 2026-067AN

PAYLOAD ACTIVE UNKNOWN

§ Identity

Operator
Country
IT
Launch date
2026-03-30
Launch site
AFWTR
Launch vehicle
Mass (kg)
RCS (m²)

External: N2YO · Heavens-Above · Gunter

§ Orbital elements

Epoch: 2026-09-19T07:42:35.219808Z

Period
94.79 min
Inclination
97.4646°
Eccentricity
0.0006116
Mean motion
15.19128536 rev/d
Perigee alt
504.3 km
Apogee alt
512.7 km
Semi-major
6,886.6 km
B*
2.2058e-4
RAAN
219.4866°
Arg perigee
90.7385°
Mean anomaly
269.4550°
Rev number
2,622

§ Raw data

IRIDE-MS1-EAGLET 2-161 68452U 26067AN  26262.32124097  .00004566  00000+0  22058-3 0  99922 68452  97.4646 219.4866 0006116  90.7385 269.4550 15.19128536 26229

JSON: /api/v1/satellites/68452 · /tle

For live sub-satellite position, see the globe view (requires WebGL).

§ Visibility from observer

Set your observer location to see the next 7 days of passes ≥ 10°. The values pass through the URL so the page stays shareable.

No JS? Fill the form by hand. The geolocation button needs JavaScript.